Location: Unspecified
(0.0000°N, 0.0000°E)
Time: 18:32:09
(UTC+02:00)

SJ-6B - Visible Passes

Search period start: 24 April 2018 00:00
Search period end: 04 May 2018 00:00
Orbit: 510 x 584 km, 97.7° (Epoch: 24 April)

Date Brightness Start Highest point End Pass type
(mag) Time Alt. Az. Time Alt. Az. Time Alt. Az.
24 Apr 4.9 21:59:53 23° NNW 21:59:53 23° NNW 22:01:30 10° NNW visible
25 Apr 4.7 21:54:36 25° NNW 21:54:36 25° NNW 21:56:19 10° NNW visible
26 Apr 4.6 21:49:19 26° N 21:49:19 26° N 21:51:06 10° N visible
27 Apr 4.5 21:44:02 26° N 21:44:02 26° N 21:45:51 10° N visible
28 Apr 4.4 21:38:45 25° N 21:38:45 25° N 21:40:35 10° N visible
29 Apr 4.4 21:33:28 24° NNE 21:33:28 24° NNE 21:35:16 10° N visible
30 Apr 4.5 21:28:11 23° NNE 21:28:11 23° NNE 21:29:55 10° N visible
01 May 4.5 21:22:54 21° NNE 21:22:54 21° NNE 21:24:32 10° NNE visible
02 May 4.6 21:17:37 19° NE 21:17:37 19° NE 21:19:06 10° NNE visible
03 May 4.7 21:12:19 16° NE 21:12:19 16° NE 21:13:38 10° NNE visible
